Location: Poughquag
(41.6090°N, 73.6820°W)
Time: 13:57:42
(UTC-04:00)

Vanguard 3 - Pass Details

Date: 31 May 2020
Orbit: 510 x 3261 km, 33.3° (Epoch: 05 July)

Event Time Altitude Azimuth Distance (km) Brightness Sun altitude
Exits shadow 02:34:53 27° 191° (S) 4,491 10.3 -22.1°
Maximum altitude 02:41:49 35° 155° (SSE) 3,628 10.1 -21.5°
Drops below altitude 10° 02:52:40 10° 96° (E) 4,292 11.1 -20.6°
Sets 02:55:51 0° 87° (E) 4,937 11.6 -20.3°
